Regional Weather Roundup
Issued by NWS Grand Forks, ND

Home | Current Version | Previous Version | Graphics & Text | Print | Product List | Glossary On
Versions: 1 2 3 4 5 6 7 8 9 10 11 12 13 14 15 16 17 18 19 20 21 22 23 24 25 26 27 28 29 30 31 32 33 34 35 36 37 38 39 40 41 42 43 44 45 46 47 48 49 50
000
ASUS43 KFGF 251310
RWRFGF
PRAIRIE TO PINES  WEATHER ROUNDUP
NATIONAL WEATHER SERVICE EASTERN NORTH DAKOTA/GRAND FORKS ND
800 AM CDT WED MAY 25 2016

 **SATELLITE DATA USED TO AUGMENT SKY COVER AT AUTOMATED STATIONS**
 *****  WEATHER ACROSS EASTERN NORTH DAKOTA  *****

CITY           SKY/WX    TMP DP  RH WIND       PRES   REMARKS
GRAND FORKS    CLOUDY    65  52  62 E12       29.81S
GRAND FRKS AFB NOT AVBL
GRAND FRKS NWS   N/A     63 N/A N/A E6          N/A
DEVILS LAKE    CLOUDY    62  54  74 SE8       29.86R
FARGO          CLOUDY    66  53  63 SE15      29.80R
WAHPETON ARPT  CLOUDY    64  52  63 E9G16     29.80S
$$

 ***** WEATHER ACROSS CENTRAL AND WESTERN NORTH DAKOTA  *****

CITY           SKY/WX    TMP DP  RH WIND       PRES   REMARKS
BISMARCK       CLOUDY    60  56  86 NE3       29.82R
MINOT          LGT RAIN  58  54  86 NW6       29.83F
JAMESTOWN      NOT AVBL
MINOT AFB      NOT AVBL
GARRISON         N/A     56  54  93 NE5       29.81F
WILLISTON      CLOUDY    53  48  83 N9        29.84S
DICKINSON      CLOUDY    53  50  89 SE9       29.81S
HETTINGER      CLOUDY    54  49  83 CALM      29.85R
$$

 *****  OTHER AIRPORT OBSERVATIONS IN OUR AREA  *****

CITY           SKY/WX    TMP DP  RH WIND       PRES   REMARKS
WALHALLA       FAIR      55  55 100 N3        29.87R
GRAFTON AIRPOR FAIR      61  59  94 E7        29.85S
VALLEY CITY AR FAIR      59  59 100 NE8       29.81F
CANDO          NOT AVBL
CAVALIER APRT  FAIR      59  55  88 N6        29.86R
GWINNER        FAIR      63  55  77 E12       29.80R
SHEYENNE NWR     N/A     62  55  77 E7        29.95S
ROLLA          FAIR      55  48  76 N10       29.87S
 ***** THE ABOVE OBSERVATIONS ARE NON NWS ARE NOT QUALITY
       CONTROLLED AND MAY MIS-REPORT RAIN FOR SNOW...
$$

  *****  WEATHER ACROSS NORTHERN MINNESOTA  *****

CITY           SKY/WX    TMP DP  RH WIND       PRES   REMARKS
FLAG ISLAND    CLOUDY    59  55  88 E8        29.92F
WARROAD        MOSUNNY   57  54  88 E9        29.92S
ROSEAU         CLOUDY    61  54  77 E6        29.89F
HALLOCK        CLOUDY    63  54  72 E10       29.84F
THF RVR FALLS  MOSUNNY   63  52  67 E14       29.88R
BAUDETTE       PTSUNNY   57  53  86 E8        29.92F
WASKISH        CLOUDY    57  55  94 E9        29.93S
CROOKSTON      CLOUDY    64  54  68 E12G18    29.83S
STEPHEN NDAWN    N/A     64  55  72 SE8         N/A
GREENBUSH NDAW   N/A     63  55  77 E6          N/A
$$
  *****  WEATHER ACROSS CENTRAL AND WEST MINNESOTA  *****

CITY           SKY/WX    TMP DP  RH WIND       PRES   REMARKS
FOSSTON        CLOUDY    59  54  82 E7        29.87S
BEMIDJI        CLOUDY    58  56  92 E6        29.92S
PARK RAPIDS    CLOUDY    60  55  83 E8        29.90S
ELBOW LAKE     FAIR      63  57  81 SE15      29.83F
WADENA         CLOUDY    57  55  94 E7        29.88F
DETROIT LAKES  CLOUDY    61  54  77 SE13      29.88S
MOORHEAD       CLOUDY    64  55  72 SE13G18   29.81S
FERGUS FALLS   CLOUDY    63  55  77 E10       29.79F
MORRIS MN      CLOUDY    64  59  82 E10       29.81F
STAPLES        CLOUDY    57  55  94 E6        29.90F
$$
  *****  WEATHER ELSEWHERE ACROSS MINNESOTA  *****

CITY           SKY/WX    TMP DP  RH WIND       PRES   REMARKS
DULUTH         DRZL/FOG  50  49  96 E14       30.02R VSB 1/4
INTRNTL FALLS  CLOUDY    55  54  96 E7        29.97S FOG
ELY            CLOUDY    55  50  82 E9        30.02S
CLOQUET        FOG       48  46  93 E15       30.00R VSB 1/4
WHEATON        CLOUDY    66  61  82 SE13      29.80F
BRAINERD       CLOUDY    56  54  93 E7        29.93S
HIBBING        CLOUDY    54  51  90 E8        29.99S
ALEXANDRIA     CLOUDY    60  55  83 E12       29.87S
SAINT CLOUD    CLOUDY    60  57  89 E9        29.90R
MINNEAPOLIS    CLOUDY    70  58  65 SE15      29.89S
$$

  *****  WEATHER ACROSS SOUTH DAKOTA  *****

CITY           SKY/WX    TMP DP  RH WIND       PRES   REMARKS
SIOUX FALLS    CLOUDY    63  58  83 S10       29.82S
BROOKINGS      CLOUDY    61  58  90 SE14      29.77R
WATERTOWN      LGT RAIN  63  58  83 SE14G21   29.74F
HURON          CLOUDY    60  58  92 MISG      29.74R
SISSETON         N/A     60  56  86 CALM      29.78F
ABERDEEN       RAIN      60  56  86 NE12      29.77F
MITCHELL       CLOUDY    63  61  93 SW8       29.76S
PIERRE         MOSUNNY   57  54  89 SW9       29.77R
MOBRIDGE       MOSUNNY   61  53  75 E6        29.74R
RAPID CITY     SUNNY     53  48  83 CALM      29.86S
$$

  *****  SOME WEATHER IN NEARBY STATES *****

CITY           SKY/WX    TMP DP  RH WIND       PRES   REMARKS
GLASGOW MT     CLOUDY    48  44  86 E3        29.88S
GREAT FALLS MT SUNNY     44  40  85 SW9       29.90R
CHEYENNE WY    SUNNY     47  36  65 W9        30.01R
SCOTTSBLUFF NE MOSUNNY   52  47  83 CALM      29.93S
OMAHA NE       CLOUDY    66  61  84 NE3       29.89R
DES MOINES IA  CLOUDY    66  63  90 S7        29.91R
DAVENPORT IA   CLOUDY    69  62  78 SE12      29.96F
CHICAGO IL     MOSUNNY   72  63  73 S7        30.01R
EAU CLAIRE WI  CLOUDY    66  58  75 SE10      29.95S
LA CROSSE WI   PTSUNNY   67  58  72 E5        29.94R
$$

  *****  SOME NATIONAL WEATHER *****

CITY           SKY/WX    TMP DP  RH WIND       PRES   REMARKS
LA GUARDIA NY  MOSUNNY   72  52  49 W5        30.06S
RALEIGH NC     MOSUNNY   70  59  68 SW6       30.23R
ATLANTA GA     MOSUNNY   72  54  53 S8        30.24R
NEW ORLEANS LA MOSUNNY   79  74  84 SE8       30.11R
OKLAHOMA CITY  PTSUNNY   76  72  87 S20G30    29.88R
ALBUQUERQUE NM SUNNY     59  13  16 NW5       30.13R
SALT LAKE CITY MOCLDY    54  41  61 SE9       29.99R
LOS ANGELES CA MOCLDY    57  50  77 CALM      30.05R
BOISE ID       PTCLDY    50  42  74 CALM      29.97R
SEATTLE WA     CLOUDY    54  50  86 SW7       30.10R
$$

*** WEATHER ACROSS MANITOBA...SASKATCHEWAN AND ONTARIO ***
                ***ONTARIO***

CITY           SKY/WX    TMP DP  RH WIND       PRES   REMARKS
GERALDTON      PTSUNNY   46  41  81 E6        30.14F
THUNDER BAY    CLOUDY    50  45  81 E12       30.10F
SIOUX LOOKOUT  NOT AVBL
TORONTO        PTSUNNY   68  52  56 W5        30.03R
BIG TROUT LK   CLOUDY    48  41  76 SE7       30.09R
PICKLE LAKE    PTSUNNY   52  46  82 S9        30.08R
DRYDEN         CLOUDY    52  52 100 E5        30.02S
KENORA         PTSUNNY   55  54  94 NE8       29.96F
$$
                *** MANITOBA***

CITY           SKY/WX    TMP DP  RH WIND       PRES   REMARKS
BRANDON        LGT RAIN  57  52  82 NE9       29.87F
DAUPHIN        FOG       50  50 100 VRB2      29.94R VSB 3/8
ISLAND LAKE    NOT AVBL
PILOT MOUND      N/A     61  50  67 NE7         N/A
THE PAS        MOSUNNY   50  45  81 E5        29.97R
THOMPSON       PTSUNNY   43  37  81 VRB2      30.02F
WINNIPEG       PTSUNNY   59  52  77 NE8       29.89F
LYNN LAKE      MOSUNNY   50  41  71 SW8       29.96F
CHURCHILL      LGT RAIN  34  30  86 SE13      30.09F WCI  25
GILLAM         CLOUDY    45  37  76 SE5       30.07S
$$
                ***SASKATCHEWAN***

CITY           SKY/WX    TMP DP  RH WIND       PRES   REMARKS
ESTEVAN          N/A     50  46  87 NE7       29.86S
KINDERSLEY     CLOUDY    46  46 100 NW5       29.90R
LLOYDMINSTER   MOSUNNY   46  45  93 S5        29.91R
PRINCE ALBERT  FOG       45  45 100 E7        29.93F VSB 3/8
REGINA         PTSUNNY   43  41  93 SE7       29.90R
YORKTON        PTSUNNY   48  48 100 N5        29.91F
N. BATTLEFORD  CLOUDY    48  48 100 E6        29.93S
LA RONGE       CLOUDY    50  45  81 S6        29.94S
SASKATOON      FOG       46  46 100 NE6       29.91R VSB 1/2
SWIFT CURRENT  FOG       46  46 100 SW5       29.88R VSB 1/4
$$
NOTE: THESE ARE AUTOMATED STATIONS WITH LIMITED QUALITY CONTROL
      "FAIR" INDICATES FEW OR NO CLOUDS BELOW 12,000 FEET WITH NO
      SIGNIFICANT WEATHER AND/OR OBSTRUCTIONS TO VISIBILITY.
      SKY/WX - SKY CONDITION AND SIGNIFICANT WEATHER.
      TMP - AIR TEMPERATURE.    DP   - DEWPOINT TEMPERATURE.
      RH  - RELATIVE HUMIDITY.  PRES - PRESSURE.
      HX  - HEAT INDEX.         WCI  - WIND CHILL INDEX.
$




USA.gov is the U.S. government's official web portal to all federal, state and local government web resources and services.